UAL839 KLAX-YSSY

Flight info

Callsign UAL839
Flight time N/A
Altitude 30000
Route SUMMR2 FICKY DCT 30N125W 28N130W 26N135W 23N140W 17N150W/N0510F320 13N155W 08N160W 04N165W/N0503F340 01N170W 02S175W 05S180W 10S175E 14S170E/N0496F360 22S163E DCT ATNAT G595 INVUS/N0488F370 DCT WARTY/N0486F380 DCT RIKNI N774 MARLN
Aircraft B77W/H-SDE1E2E3FGHIJ2J3J4J5M1RWXY/LB1D1

Departure

Time 2026-05-07 21:02
Airport Los Angeles International Airport (KLAX)

Arrival

Time N/A
Airport Sydney Kingsford Smith International Airport (YSSY)
Time Latitude Longitude Altitude Speed Heading
2026-05-07 20:22 33.94101 -118.39888 102 ft 0 kts 306°
2026-05-07 20:45 33.94094 -118.39876 103 ft 4 kts 306°
2026-05-07 20:45 33.94082 -118.39853 101 ft 4 kts 271°
2026-05-07 20:45 33.94091 -118.39832 98 ft 4 kts 200°
2026-05-07 20:45 33.94112 -118.39828 101 ft 2 kts 173°
2026-05-07 20:46 33.94137 -118.39832 98 ft 4 kts 173°
2026-05-07 20:46 33.94158 -118.39835 99 ft 0 kts 173°
2026-05-07 20:51 33.94128 -118.39831 99 ft 8 kts 173°
2026-05-07 20:51 33.94069 -118.39827 100 ft 9 kts 179°
2026-05-07 20:51 33.94039 -118.39826 101 ft 0 kts 176°
2026-05-07 20:52 33.94038 -118.39826 101 ft 1 kts 176°
2026-05-07 20:52 33.94026 -118.39825 102 ft 2 kts 174°
2026-05-07 20:52 33.93991 -118.39817 104 ft 8 kts 170°
2026-05-07 20:52 33.93941 -118.39809 105 ft 1 kts 172°
2026-05-07 20:53 33.93930 -118.39809 105 ft 3 kts 182°
2026-05-07 20:53 33.93904 -118.39836 107 ft 8 kts 240°
2026-05-07 20:53 33.93884 -118.39937 109 ft 18 kts 264°
2026-05-07 20:53 33.93865 -118.40125 108 ft 26 kts 263°
2026-05-07 20:54 33.93841 -118.40364 108 ft 31 kts 263°
2026-05-07 20:54 33.93812 -118.40645 107 ft 36 kts 263°
2026-05-07 20:54 33.93780 -118.40960 107 ft 40 kts 263°
2026-05-07 20:54 33.93802 -118.41152 105 ft 19 kts 344°
2026-05-07 20:55 33.93958 -118.41175 101 ft 27 kts 353°
2026-05-07 20:55 33.94162 -118.41204 100 ft 31 kts 353°
2026-05-07 20:55 33.94384 -118.41238 100 ft 33 kts 352°
2026-05-07 20:55 33.94614 -118.41271 102 ft 34 kts 353°
2026-05-07 20:56 33.94782 -118.41273 106 ft 17 kts 46°
2026-05-07 20:56 33.94809 -118.41130 106 ft 18 kts 83°
2026-05-07 20:56 33.94825 -118.40971 107 ft 20 kts 82°
2026-05-07 20:56 33.94843 -118.40792 105 ft 23 kts 82°
2026-05-07 20:57 33.94864 -118.40594 106 ft 25 kts 83°
2026-05-07 20:57 33.94885 -118.40383 104 ft 26 kts 83°
2026-05-07 20:57 33.94905 -118.40185 106 ft 24 kts 83°
2026-05-07 20:57 33.94931 -118.40080 105 ft 8 kts 37°
2026-05-07 20:58 33.94987 -118.40068 110 ft 8 kts
2026-05-07 20:58 33.95018 -118.40125 110 ft 10 kts 276°
2026-05-07 20:58 33.95055 -118.40186 110 ft 11 kts 352°
2026-05-07 20:58 33.95158 -118.40200 110 ft 17 kts 353°
2026-05-07 20:59 33.95203 -118.40230 111 ft 7 kts 287°
2026-05-07 20:59 33.95202 -118.40288 110 ft 0 kts 263°
2026-05-07 21:01 33.95191 -118.40396 110 ft 47 kts 263°
2026-05-07 21:01 33.95116 -118.41127 108 ft 127 kts 263°
2026-05-07 21:01 33.94978 -118.42477 125 ft 194 kts 262°
2026-05-07 21:02 33.94815 -118.44154 752 ft 208 kts 263°
2026-05-07 21:02 33.94643 -118.45927 1718 ft 212 kts 262°
2026-05-07 21:02 33.94479 -118.47632 2468 ft 197 kts 265°
2026-05-07 21:02 33.94349 -118.49248 2913 ft 194 kts 265°
2026-05-07 21:03 33.94219 -118.50917 3014 ft 210 kts 266°
2026-05-07 21:03 33.94077 -118.52754 3032 ft 231 kts 265°
2026-05-07 21:03 33.93924 -118.54720 3002 ft 239 kts 265°
2026-05-07 21:03 33.93767 -118.56742 3135 ft 248 kts 265°
2026-05-07 21:04 33.93599 -118.58889 3355 ft 266 kts 265°
2026-05-07 21:04 33.93424 -118.61124 3941 ft 267 kts 265°
2026-05-07 21:04 33.93249 -118.63344 4629 ft 269 kts 265°
2026-05-07 21:04 33.93074 -118.65579 5294 ft 268 kts 265°
2026-05-07 21:05 33.92898 -118.67851 5784 ft 277 kts 265°
2026-05-07 21:05 33.92717 -118.70186 6320 ft 282 kts 265°
2026-05-07 21:05 33.92537 -118.72498 6951 ft 282 kts 265°
2026-05-07 21:05 33.92354 -118.74857 7507 ft 285 kts 265°
2026-05-07 21:06 33.92166 -118.77261 7983 ft 289 kts 266°
2026-05-07 21:06 33.91976 -118.79698 8497 ft 295 kts 265°
2026-05-07 21:06 33.91781 -118.82176 8986 ft 300 kts 266°
2026-05-07 21:06 33.91647 -118.84706 9473 ft 305 kts 271°
2026-05-07 21:07 33.91723 -118.87268 9980 ft 309 kts 275°
2026-05-07 21:07 33.91851 -118.89888 10309 ft 321 kts 274°
2026-05-07 21:07 33.91966 -118.92650 10439 ft 340 kts 274°
2026-05-07 21:07 33.92064 -118.95574 10582 ft 359 kts 274°
2026-05-07 21:08 33.92124 -118.98640 10727 ft 372 kts 268°
2026-05-07 21:08 33.91489 -119.01702 10954 ft 386 kts 242°
2026-05-07 21:08 33.89866 -119.04290 11452 ft 390 kts 222°
2026-05-07 21:08 33.87837 -119.06397 11912 ft 394 kts 220°
2026-05-07 21:09 33.85728 -119.08553 12434 ft 400 kts 220°
2026-05-07 21:09 33.83601 -119.10728 13059 ft 402 kts 220°
2026-05-07 21:09 33.81463 -119.12916 13660 ft 406 kts 220°
2026-05-07 21:09 33.79304 -119.15134 14147 ft 411 kts 220°
2026-05-07 21:10 33.77123 -119.17379 14640 ft 415 kts 220°
2026-05-07 21:10 33.74921 -119.19651 15190 ft 418 kts 220°
2026-05-07 21:10 33.72746 -119.21900 15740 ft 421 kts 220°
2026-05-07 21:10 33.70519 -119.24202 16287 ft 424 kts 220°
2026-05-07 21:11 33.68277 -119.26520 16834 ft 427 kts 220°
2026-05-07 21:11 33.66023 -119.28850 17391 ft 430 kts 220°
2026-05-07 21:11 33.61455 -119.33567 18416 ft 437 kts 220°
2026-05-07 21:12 33.59143 -119.35952 18874 ft 440 kts 220°
2026-05-07 21:12 33.56817 -119.38350 19356 ft 442 kts 220°
2026-05-07 21:12 33.54479 -119.40758 19849 ft 444 kts 220°
2026-05-07 21:12 33.52128 -119.43177 20328 ft 447 kts 220°
2026-05-07 21:13 33.49761 -119.45611 20815 ft 448 kts 220°
2026-05-07 21:13 33.47435 -119.48001 21858 ft 431 kts 220°
2026-05-07 21:13 33.45229 -119.50266 23438 ft 404 kts 221°
2026-05-07 21:13 33.43120 -119.52430 24212 ft 398 kts 221°
2026-05-07 21:14 33.41034 -119.54570 24443 ft 404 kts 221°
2026-05-07 21:14 33.38867 -119.56790 24521 ft 414 kts 221°
2026-05-07 21:14 33.36679 -119.59033 24812 ft 417 kts 221°
2026-05-07 21:14 33.34460 -119.61304 25064 ft 421 kts 221°
2026-05-07 21:15 33.32208 -119.63608 25058 ft 428 kts 221°
2026-05-07 21:15 33.29970 -119.65896 25192 ft 421 kts 221°
2026-05-07 21:15 33.27726 -119.68186 25377 ft 426 kts 221°
2026-05-07 21:15 33.25465 -119.70493 25752 ft 427 kts 221°
2026-05-07 21:16 33.23196 -119.72806 26097 ft 428 kts 221°
2026-05-07 21:16 33.20924 -119.75121 26451 ft 431 kts 222°
2026-05-07 21:16 33.18645 -119.77443 26786 ft 433 kts 222°